Regional Weather Roundup
Issued by NWS

Home | Current Version | Previous Version | Graphics & Text | Print | Product List | Glossary On
Versions: 1 2 3 4 5 6 7 8 9 10 11 12 13 14 15 16 17 18 19 20 21 22 23 24 25 26 27 28 29 30 31 32 33 34 35 36 37 38 39 40 41 42 43 44 45 46 47 48 49 50
000
ASUS45 KSLC 031310
RWRUT

UTAH REGIONAL WEATHER ROUNDUP
NATIONAL WEATHER SERVICE SALT LAKE CITY UT
600 AM MST TUE MAR 03 2015

UTZ001>011-023>025-031400-

NORTHERN UTAH

CITY           SKY/WX    TMP DP  RH WIND       PRES   REMARKS
BRIGHAM CITY   CLOUDY    33  31  96 CALM      29.79F
HILL AFB       LGT SNOW  32  32 100 S10       29.77S FOG     WCI  23
LOGAN          LGT SNOW  32  31  96 N5        29.77S FOG     WCI  27
OGDEN          LGT SNOW  33  32  96 S7        29.77S VSB 1   WCI  27
PROVO AIRPORT  MOCLDY    34  28  80 CALM      29.81F
SALT LAKE CITY CLOUDY    36  31  82 SW6       29.78F WCI  31
VERNAL         MOCLDY    27  25  92 W3        29.78R
WENDOVER       CLOUDY    34  28  80 NW6       29.81F WCI  29
HEBER CITY     FLURRIES  32  27  80 S8        29.76S WCI  25
WEST JORDAN    CLOUDY    34  34 100 S12       29.79S WCI  25

$$

UTZ012>022-026-027-031400-

SOUTHERN/CENTRAL UTAH

CITY           SKY/WX    TMP DP  RH WIND       PRES   REMARKS
BLANDING       MOCLDY    27  27  99 E5        29.95S WCI  22
BRYCE CANYON   FOG        5   3  91 CALM      29.84S VSB 3/4
CEDAR CITY     CLOUDY    28  26  92 SW9       29.85F WCI  19
DELTA          PTCLDY    31  28  91 S12       29.81F WCI  21
HANKSVILLE     CLEAR     32  27  80 CALM      29.86S
MILFORD        CLEAR     29  24  82 S12       29.84S WCI  19
MOAB/CYNLANDS  CLEAR     36  27  69 SE3       29.82S
PRICE          CLEAR     22  18  85 NE5       29.79S WCI  16
ST GEORGE      CLOUDY    41  36  81 S3        29.94F
KANAB          CLOUDY    32  32 100 CALM      29.93F

$$

REGIONAL REPORTS     COLORADO/ARIZONA

CITY           SKY/WX    TMP DP  RH WIND       PRES   REMARKS
CRAIG, CO      LGT SNOW  28  25  88 W10       29.78R FOG     WCI  19
GRAND JUNCTION CLOUDY    33  28  81 VRB5      29.82S WCI  29
RIFLE          PTCLDY    33  26  75 E6        29.80R WCI  28
MONTROSE       PTCLDY    34  22  61 N3        29.85S
CORTEZ         CLOUDY    31  28  89 NE3       29.90S
PAGE, AZ       NOT AVBL
GRAND CANYON   FOG       23  22  96 NE5       29.90F VSB 1/2 WCI  17
KINGMAN        CLEAR     30  27  88 S6        29.92S WCI  24
FLAGSTAFF      NOT AVBL

$$

REGIONAL REPORTS    NEVADA/IDAHO/WYOMING

CITY           SKY/WX    TMP DP  RH WIND       PRES   REMARKS
LAS VEGAS, NV  CLEAR     42  35  76 SW7       29.89R
ELY            CLOUDY    27  24  89 CALM      29.84R
ELKO           CLOUDY    29  23  78 SW5       29.86R WCI  24
POCATELLO, ID  SNOW      24  22  91 NE14G24   29.83R VSB 1/2 WCI  12
BURLEY         PTCLDY    28  20  71 W18G25    29.81R WCI  15
EVANSTON, WY   LGT SNOW  24  22  91 SW10      29.71S FOG     WCI  14
ROCK SPRINGS   CLOUDY    18  16  92 NE7       29.75S WCI   9
KEMMERER       CLOUDY    19  19 100 SW5       29.69F WCI  13

$$



USA.gov is the U.S. government's official web portal to all federal, state and local government web resources and services.